TimeCDT,TemperatureF,Dew PointF,Humidity,Sea Level PressureIn,VisibilityMPH,Wind Direction,Wind SpeedMPH,Gust SpeedMPH,PrecipitationIn,Events,Conditions,WindDirDegrees,DateUTC
12:52 AM,12.0,8.1,84,30.14,10.0,Calm,Calm,-,N/A,,Clear,0,2014-03-13 05:52:00
1:52 AM,12.0,7.0,80,30.14,10.0,Calm,Calm,-,N/A,,Clear,0,2014-03-13 06:52:00
2:52 AM,10.0,7.0,87,30.13,10.0,Calm,Calm,-,N/A,,Clear,0,2014-03-13 07:52:00
3:52 AM,9.0,5.0,84,30.13,10.0,Calm,Calm,-,N/A,,Clear,0,2014-03-13 08:52:00
4:52 AM,9.0,5.0,84,30.14,10.0,Calm,Calm,-,N/A,,Clear,0,2014-03-13 09:52:00
5:52 AM,9.0,6.1,88,30.13,10.0,SSE,3.5,-,N/A,,Clear,150,2014-03-13 10:52:00
6:52 AM,9.0,5.0,84,30.14,10.0,Calm,Calm,-,N/A,,Clear,0,2014-03-13 11:52:00
7:52 AM,10.9,8.1,88,30.15,9.0,South,4.6,-,N/A,,Clear,170,2014-03-13 12:52:00
8:52 AM,17.1,12.9,84,30.16,8.0,South,6.9,-,N/A,,Clear,180,2014-03-13 13:52:00
9:52 AM,23.0,14.0,68,30.14,10.0,South,13.8,-,N/A,,Clear,190,2014-03-13 14:52:00
10:52 AM,25.0,18.0,75,30.12,9.0,South,12.7,-,N/A,,Overcast,190,2014-03-13 15:52:00
11:52 AM,25.0,19.0,78,30.11,9.0,South,15.0,-,N/A,,Overcast,190,2014-03-13 16:52:00
12:52 PM,27.0,21.0,78,30.08,9.0,South,16.1,-,N/A,,Overcast,180,2014-03-13 17:52:00
1:52 PM,28.9,23.0,78,30.04,7.0,South,21.9,-,N/A,,Overcast,180,2014-03-13 18:52:00
2:52 PM,30.0,23.0,75,30.00,9.0,South,21.9,-,N/A,,Overcast,180,2014-03-13 19:52:00
3:52 PM,33.1,25.0,72,29.99,8.0,South,16.1,24.2,N/A,,Clear,190,2014-03-13 20:52:00
4:52 PM,34.0,26.1,73,29.98,8.0,South,18.4,24.2,N/A,,Clear,190,2014-03-13 21:52:00
5:52 PM,34.0,28.0,79,29.97,8.0,South,13.8,-,N/A,,Clear,190,2014-03-13 22:52:00
6:52 PM,33.1,28.0,82,29.96,7.0,South,13.8,-,N/A,,Clear,190,2014-03-13 23:52:00
7:52 PM,30.9,28.0,89,29.94,7.0,South,9.2,-,N/A,,Clear,170,2014-03-14 00:52:00
8:52 PM,32.0,28.9,88,29.91,6.0,South,10.4,-,N/A,,Clear,180,2014-03-14 01:52:00
9:52 PM,33.1,30.0,89,29.89,6.0,South,11.5,-,N/A,,Clear,180,2014-03-14 02:52:00
10:52 PM,34.0,30.9,89,29.88,7.0,South,11.5,-,N/A,,Clear,190,2014-03-14 03:52:00
11:52 PM,34.0,30.0,85,29.86,9.0,South,10.4,-,N/A,,Clear,190,2014-03-14 04:52:00